389  
ASUS44 KLZK 211603  
RWRLZK  
 
WEATHER ROUNDUP FOR ARKANSAS  
NATIONAL WEATHER SERVICE LITTLE ROCK AR  
1100 AM CDT SAT MAY 21 2022  
 
NOTE: "FAIR" INDICATES FEW OR NO CLOUDS BELOW 12,000 FEET WITH NO  
SIGNIFICANT WEATHER AND/OR S TO VISIBILITY
.  
 
ARZ001-010-029-103-211700-  
NORTHWEST ARKANSAS  
 
CITY SKY/WX TMP DP RH WIND PRES REMARKS
 
FAYETTEVILLE CLOUDY 67 63 87 NE3 29.93F  
FORT SMITH PTSUNNY 74 69 85 E7 29.88S  
HARRISON CLOUDY 64 60 87 SE8 29.97S  
BENTONVILLE CLOUDY 61 61 100 NE5 29.98R  
ROGERS CLOUDY 60 60 100 N3 29.97R  
SILOAM SPGS CLOUDY 61 61 100 N8 29.95R  
HIGHFILL CLOUDY 62 60 93 N5 29.96R  
SPRINGDALE CLOUDY 63 63 100 E7 29.95S  

 
 
ARZ004-005-016-211700-  
NORTH CENTRAL ARKANSAS  
 
CITY SKY/WX TMP DP RH WIND PRES REMARKS
 
BATESVILLE CLOUDY 80 72 76 MISG N/A  
FLIPPIN CLOUDY 68 63 84 CALM 29.96R  

 
 
ARZ140-141-211700-  
WEST CENTRAL ARKANSAS  
 
CITY SKY/WX TMP DP RH WIND PRES REMARKS
 
MENA MOSUNNY 82 73 74 S6 29.93F HX 88  
MOUNT IDA PTSUNNY 82 71 69 VRB5 29.92R HX 86  

 
 
ARZ009-017-025-026-028-211700-  
NORTHEAST ARKANSAS  
 
CITY SKY/WX TMP DP RH WIND PRES REMARKS
 
JONESBORO PTSUNNY 85 71 63 SW17 29.96F HX 90  
NEWPORT PTSUNNY 83 72 69 S18 29.94F HX 88  
WALNUT RIDGE CLOUDY 82 73 74 MISG 29.94F HX 87  
BLYTHEVILLE CLOUDY 83 69 62 SW16G26 30.00R HX 86  

 
 
ARZ032-043-044-211700-  
LITTLE ROCK METRO AREA  
 
CITY SKY/WX TMP DP RH WIND PRES REMARKS
 
LITTLE ROCK CLOUDY 83 72 69 S12 29.94F HX 88  
N LTL ROCK NWS N/A 80 74 81 S6 29.90F  
NLR AIRPORT CLOUDY 81 75 83 S9G15 29.94F HX 86  
CONWAY PTSUNNY 82 75 78 S10 29.92S HX 89  

 
 
ARZ033-042-122-123-211700-  
REMAINDER OF CENTRAL ARKANSAS  
 
CITY SKY/WX TMP DP RH WIND PRES REMARKS
 
SEARCY CLOUDY 83 74 74 S15 29.95F HX 89  
HOT SPRINGS MOSUNNY 83 73 72 S8 29.93F HX 89  
RUSSELLVILLE CLOUDY 80 72 76 E5 29.91  
CLINTON CLOUDY 81 73 78 VRB5G13 29.93F HX 85  

 
 
ARZ036-211700-  
EAST ARKANSAS  
 
CITY SKY/WX TMP DP RH WIND PRES REMARKS
 
WEST MEMPHIS MOSUNNY 85 70 60 S16 29.99R HX 89  

 
 
ARZ050-053-066-070-073-211700-  
SOUTHWEST ARKANSAS  
 
CITY SKY/WX TMP DP RH WIND PRES REMARKS
 
CAMDEN PTSUNNY 88 77 70 S9 29.94S HX 100  
TEXARKANA MOSUNNY 86 73 65 SW8 29.92S HX 93  
EL DORADO PTSUNNY 85 74 69 SE10G20 29.96R HX 92  
DE QUEEN MOSUNNY 84 74 71 S7G18 29.89F HX 91  

 
 
ARZ056-057-069-211700-  
SOUTHEAST ARKANSAS  
 
CITY SKY/WX TMP DP RH WIND PRES REMARKS
 
STUTTGART PTSUNNY 85 72 65 S20 29.97F HX 91  
MONTICELLO PTSUNNY 86 72 62 S14G20 29.97F HX 92  
 

 
 
 
 
CLICK HERE TO GO TO PREVIOUS BULLETINS.

The Nexlab AR Page Main Text Page